Wind_Speed
18 44 64 73 72 72 73 75 82 85 91 92 89 90 87 90 91 95 95 98 100 101 101 100 99 95 91 89 87 85 78 74 75 80 75 78 74 75 77 73 64 63 62 58 62
14 15 37 66 73 73 74 75 78 86 91 87 94 94 92 92 91 89 94 101 103 105 103 106 107 103 100 95 93 86 81 72 71 72 70 70 65 68 74 64 65 68 69 69 66
19 20 20 31 62 75 73 76 77 81 93 99 93 89 87 87 88 93 94 95 99 103 101 103 104 105 100 99 98 93 89 86 78 79 79 74 64 68 69 62 60 63 65 67 65
22 23 27 29 30 46 69 76 75 80 85 92 105 103 98 93 93 93 92 96 97 98 102 101 106 105 100 100 99 98 92 87 84 85 88 87 84 78 73 68 71 69 65 61 62
27 29 30 35 38 41 44 58 74 78 81 87 93 104 107 106 97 104 101 100 101 100 100 101 103 105 106 104 106 102 93 97 93 91 90 90 85 84 82 81 73 71 68 73 71
33 33 34 38 40 48 50 54 58 69 78 85 87 94 99 105 113 106 99 100 105 106 105 106 105 104 106 104 107 102 99 98 96 97 97 95 85 81 72 70 70 69 67 70 71
36 37 39 40 44 44 53 61 63 68 73 80 85 91 94 104 113 115 116 108 105 105 107 108 112 112 106 106 105 104 102 101 97 97 93 91 80 68 68 72 70 72 72 74 75
39 40 41 44 45 49 54 57 68 75 78 80 83 87 92 103 107 114 120 120 117 112 109 110 110 108 105 105 105 106 105 102 95 98 99 102 84 80 82 83 81 82 82 82 81
42 42 43 47 50 53 56 61 64 73 81 86 90 91 94 101 106 112 117 120 123 123 121 118 114 111 109 105 102 101 100 95 95 96 102 101 84 88 94 93 87 89 90 87 76
43 45 45 44 47 50 53 57 64 73 78 87 95 100 104 107 107 110 116 117 120 124 126 128 125 120 112 107 98 98 92 97 100 98 101 102 90 88 87 91 90 86 80 76 77
44 39 39 41 42 46 50 56 61 71 79 87 96 102 110 117 116 115 116 118 121 123 124 129 129 125 118 115 114 108 105 99 99 100 104 91 87 88 90 88 83 79 77 77 76
33 37 38 41 43 48 55 64 69 72 77 82 96 106 112 117 120 121 121 119 119 120 123 126 120 122 124 127 127 121 112 108 104 108 106 96 89 84 84 86 87 83 82 80 79
33 37 39 40 47 51 58 66 69 71 73 69 70 75 87 102 115 121 122 125 123 119 119 122 118 122 125 126 122 122 120 113 113 113 107 103 96 90 90 87 86 85 85 87 87
33 35 38 45 52 57 63 66 66 70 74 67 66 62 70 77 90 109 117 121 123 124 120 116 118 120 121 118 118 116 113 113 119 113 107 111 103 103 100 91 89 90 90 87 87
32 33 41 51 54 56 60 62 63 71 71 55 52 49 55 58 70 86 103 110 118 123 127 121 117 116 117 116 115 111 111 111 114 115 112 99 90 78 88 86 84 82 81 79 73
29 37 45 49 53 55 57 60 64 64 55 48 42 38 42 49 56 69 87 96 109 109 115 120 123 119 113 113 111 108 107 106 105 104 95 91 86 72 75 76 75 69 62 59 58
34 41 47 47 55 57 58 61 63 63 51 43 42 36 34 40 46 57 70 88 96 101 103 112 120 120 119 116 110 106 104 101 100 95 85 86 77 71 77 75 71 63 62 61 60
40 45 48 56 57 60 63 62 65 58 48 37 39 33 31 33 41 48 58 70 87 94 97 107 111 112 115 115 118 109 103 98 94 87 78 77 68 65 69 65 62 59 59 57 54
46 46 55 58 59 63 65 62 62 53 42 41 32 30 27 30 36 41 45 55 67 85 94 102 103 105 107 108 113 114 104 99 94 85 76 67 56 52 53 54 53 54 50 47 45
47 51 60 61 61 65 67 64 60 54 43 32 31 28 25 25 30 34 37 44 53 68 88 90 94 99 104 103 102 111 109 105 95 84 74 64 54 44 46 43 43 37 37 33 33
47 55 63 62 64 68 69 66 61 55 44 38 30 25 22 22 25 27 32 37 46 56 67 80 83 86 94 96 99 103 107 105 99 89 75 63 51 46 50 41 34 34 31 29 31
47 56 58 60 64 64 65 61 60 57 47 38 34 25 21 18 20 23 26 33 39 43 52 62 77 83 84 89 95 95 96 98 96 89 79 66 53 59 50 39 35 33 30 29 28
52 51 55 58 61 68 67 62 57 55 50 44 36 31 23 14 17 19 23 28 34 38 42 53 69 78 77 77 80 82 86 86 86 87 79 70 62 66 58 48 39 31 29 31 25
52 57 59 59 61 64 64 63 61 58 55 44 40 32 23 20 12 16 19 23 26 31 38 45 57 69 74 74 69 70 73 76 78 78 76 66 71 66 59 49 42 34 33 31 26
55 57 58 59 64 66 63 60 55 58 57 45 38 33 23 17 15 10 13 17 20 26 32 39 45 58 66 61 64 63 62 64 65 70 71 70 74 68 61 53 46 39 32 30 28
57 58 61 59 61 65 63 61 59 56 55 47 36 31 23 18 13 8 6 10 15 20 27 36 40 43 49 52 60 59 57 57 60 63 65 72 70 69 66 55 47 40 32 28 24
57 59 59 59 59 63 62 62 54 56 56 46 37 30 21 16 13 10 6 8 14 19 23 29 33 33 37 44 54 55 51 52 56 59 62 69 72 69 62 55 48 39 35 29 25
Wind_Direction
247 241 234 230 232 233 233 231 229 229 230 233 235 232 235 236 237 236 239 238 241 243 243 245 246 245 242 245 249 252 253 255 251 254 249 251 254 253 255 256 259 266 267 267 274
310 268 240 234 232 235 234 234 232 231 227 232 234 237 238 237 238 240 241 242 242 244 245 246 246 245 246 246 247 249 250 250 251 245 249 255 250 254 255 259 267 270 271 274 272
290 280 276 245 238 236 237 236 236 233 232 231 232 235 239 240 239 242 241 243 243 243 245 245 247 249 250 248 250 250 249 248 245 243 246 252 249 252 263 268 268 267 269 269 266
283 274 263 259 250 243 239 238 239 239 235 236 235 235 238 240 243 241 239 243 243 244 244 242 245 244 246 248 245 247 247 248 248 247 248 252 254 256 261 268 267 269 269 270 269
281 268 263 256 251 248 244 241 240 242 240 238 238 236 238 238 237 244 243 242 243 246 246 244 244 244 245 245 246 247 246 245 244 248 252 254 258 261 263 265 268 270 270 269 266
284 271 263 257 254 248 246 244 242 242 241 241 240 239 239 237 237 239 242 244 243 244 244 245 244 246 245 246 247 247 244 245 247 250 253 255 256 260 263 261 260 263 264 263 265
281 273 264 260 255 254 250 246 245 244 243 243 242 240 239 239 239 241 238 236 241 246 247 247 247 246 246 246 247 247 246 245 246 248 251 255 253 260 255 258 261 262 263 263 266
286 279 274 268 262 257 253 251 248 247 245 244 243 242 242 241 240 241 240 240 240 239 241 245 244 246 248 247 245 244 245 246 249 251 251 252 250 255 258 259 262 263 265 268 271
286 281 277 274 268 265 261 256 253 250 248 247 246 244 242 242 241 241 241 238 241 241 240 238 240 243 246 245 245 245 246 247 247 249 251 254 250 254 259 260 261 264 266 269 274
286 285 282 277 272 270 268 264 261 258 251 248 245 244 243 243 241 241 241 240 240 240 239 240 240 241 241 242 246 244 247 246 247 249 249 251 248 251 256 261 262 264 267 269 270
287 287 286 284 282 281 277 275 272 267 258 253 249 245 243 243 240 241 240 239 239 240 240 239 240 242 245 242 238 242 245 244 245 245 247 249 249 247 255 259 262 265 266 267 270
294 295 293 295 294 290 290 286 283 279 276 265 254 249 247 246 245 241 240 240 238 239 240 241 241 240 243 245 245 244 242 243 244 246 246 248 254 253 253 255 258 262 266 268 269
302 302 302 302 301 300 301 299 294 289 284 275 268 261 254 251 248 246 244 240 241 239 238 239 240 241 241 242 244 245 243 242 242 246 248 250 251 255 257 255 257 260 264 268 269
307 308 308 311 309 306 307 305 300 295 292 291 284 270 257 251 243 241 246 243 242 241 241 238 237 238 241 243 243 244 245 246 245 248 250 252 254 258 253 256 260 263 266 267 267
309 312 313 316 317 314 315 311 308 302 302 296 284 272 262 252 243 236 238 239 239 240 241 239 239 239 240 241 242 242 244 245 248 250 252 253 254 251 255 256 256 258 261 265 270
316 319 321 323 325 326 323 320 316 311 316 307 293 278 264 256 245 237 236 237 235 236 237 239 239 239 240 241 240 240 243 245 246 248 249 250 254 251 253 252 254 257 262 265 266
324 326 332 335 338 337 334 329 329 326 320 309 299 287 270 257 248 239 234 233 232 235 234 233 236 238 238 239 241 241 242 243 245 247 249 250 253 255 252 253 258 260 261 262 263
331 334 341 345 344 344 344 340 337 328 323 316 306 293 280 260 250 241 235 233 232 232 231 232 234 235 236 235 237 239 240 241 243 244 245 248 250 252 251 253 257 258 260 261 264
338 337 344 346 347 347 350 346 341 334 334 325 314 300 288 269 253 248 239 234 232 231 229 231 232 234 235 234 234 234 238 239 240 239 240 244 244 243 247 251 251 254 255 259 265
338 336 341 345 347 348 350 347 346 343 338 335 328 319 302 275 263 248 243 236 231 230 230 231 230 233 235 233 233 232 232 236 238 238 237 237 239 240 243 241 246 245 245 245 249
334 335 337 343 347 347 351 350 347 348 345 342 341 332 310 288 266 255 241 235 231 227 230 230 230 230 232 232 231 231 231 231 234 235 234 231 232 229 228 246 237 229 230 234 238
337 337 342 344 347 350 350 351 348 350 348 348 345 344 329 305 274 259 245 239 230 229 225 228 228 229 228 229 229 230 230 231 231 231 231 228 223 223 236 235 224 224 225 229 237
341 343 344 348 349 349 348 349 352 352 352 349 349 345 341 320 293 264 247 238 234 225 222 218 227 229 230 228 227 228 229 228 230 228 227 226 217 222 229 229 224 218 215 223 229
345 345 346 349 351 350 350 351 353 352 354 352 348 346 345 334 308 279 252 243 234 228 221 217 218 223 227 224 225 225 225 225 224 223 220 216 220 222 227 226 222 212 212 220 228
343 344 346 348 349 353 354 352 353 352 353 352 348 345 343 348 334 307 270 243 231 221 218 216 216 219 223 216 217 219 220 219 219 219 215 210 215 220 221 221 220 213 215 220 232
342 343 344 347 348 352 355 355 352 352 354 351 347 346 343 346 338 316 279 238 230 222 214 213 215 216 221 211 210 209 210 209 211 214 208 206 212 216 219 217 217 215 211 214 228
344 344 344 345 349 352 355 357 354 352 351 353 347 349 347 349 347 333 303 235 215 207 203 205 210 210 209 205 203 199 200 201 204 206 201 204 209 210 212 212 214 215 208 215 227
Height
10677 10679 10683 10689 10694 10700 10706 10711 10717 10721 10727 10731 10736 10743 10748 10755 10759 10764 10771 10762 10766 10771 10780 10786 10791 10795 10803 10810 10814 10824 10839 10844 10843 10834 10825 10830 10841 10836 10837 10847 10852 10856 10863 10867 10867
10674 10674 10675 10678 10684 10689 10694 10698 10704 10708 10712 10716 10721 10727 10733 10740 10744 10748 10741 10750 10750 10756 10766 10768 10771 10774 10788 10794 10803 10814 10828 10832 10823 10818 10813 10817 10828 10827 10817 10842 10847 10847 10848 10853 10858
10672 10671 10670 10670 10673 10677 10681 10687 10691 10695 10698 10700 10705 10710 10716 10722 10726 10724 10731 10728 10731 10738 10745 10749 10751 10759 10773 10780 10791 10799 10817 10810 10810 10805 10800 10800 10820 10814 10814 10836 10832 10833 10838 10842 10847
10667 10665 10664 10664 10664 10666 10669 10673 10676 10680 10682 10685 10689 10693 10698 10705 10705 10704 10710 10710 10713 10718 10724 10729 10732 10740 10757 10762 10765 10777 10794 10795 10795 10788 10789 10792 10795 10811 10818 10819 10815 10819 10826 10831 10832
10660 10657 10656 10655 10656 10656 10656 10657 10660 10662 10665 10667 10670 10675 10681 10688 10681 10681 10693 10697 10697 10701 10705 10710 10715 10722 10735 10744 10742 10762 10777 10777 10780 10775 10779 10776 10788 10798 10811 10810 10803 10803 10813 10816 10819
10649 10647 10644 10643 10643 10642 10643 10642 10642 10642 10643 10644 10648 10653 10660 10666 10653 10660 10673 10673 10675 10680 10684 10689 10697 10701 10709 10721 10725 10745 10756 10758 10763 10767 10765 10767 10779 10785 10801 10787 10794 10793 10798 10801 10806
10637 10634 10631 10630 10629 10628 10627 10627 10626 10622 10622 10625 10629 10632 10638 10631 10635 10640 10642 10653 10654 10658 10662 10668 10671 10679 10696 10705 10715 10724 10733 10742 10754 10753 10752 10745 10773 10788 10778 10770 10778 10781 10789 10790 10793
10623 10620 10617 10615 10613 10611 10610 10608 10605 10602 10603 10605 10607 10608 10613 10606 10609 10606 10618 10627 10631 10637 10639 10642 10647 10658 10672 10683 10692 10700 10711 10728 10742 10728 10732 10721 10786 10772 10756 10758 10766 10769 10774 10779 10785
10610 10607 10604 10600 10597 10595 10592 10588 10584 10580 10583 10583 10583 10583 10581 10576 10579 10582 10584 10595 10600 10610 10616 10615 10623 10637 10648 10661 10671 10685 10706 10717 10708 10705 10710 10714 10775 10757 10738 10740 10756 10760 10765 10769 10777
10597 10593 10589 10584 10581 10578 10574 10570 10563 10555 10557 10551 10549 10552 10549 10543 10550 10553 10558 10567 10576 10577 10589 10593 10602 10613 10629 10644 10665 10675 10685 10685 10692 10690 10688 10706 10742 10733 10726 10732 10746 10751 10757 10762 10762
10583 10579 10575 10571 10568 10562 10557 10550 10543 10531 10527 10523 10517 10516 10513 10507 10516 10523 10524 10534 10543 10548 10561 10567 10578 10604 10611 10624 10636 10645 10659 10666 10671 10673 10671 10700 10716 10721 10720 10725 10735 10741 10744 10746 10750
10572 10568 10564 10559 10554 10548 10540 10528 10518 10508 10496 10491 10484 10479 10480 10479 10488 10493 10495 10507 10512 10522 10530 10538 10568 10577 10583 10594 10611 10623 10638 10647 10652 10651 10661 10685 10697 10712 10717 10722 10725 10731 10731 10734 10737
10563 10557 10553 10547 10539 10531 10520 10506 10492 10477 10466 10460 10455 10452 10447 10454 10458 10456 10467 10473 10482 10494 10507 10519 10541 10546 10557 10570 10584 10600 10614 10625 10632 10631 10651 10666 10687 10699 10707 10710 10715 10719 10721 10723 10725
10553 10548 10541 10534 10524 10512 10499 10484 10468 10452 10438 10426 10417 10413 10408 10412 10415 10416 10420 10442 10456 10470 10480 10497 10510 10518 10530 10552 10564 10580 10590 10600 10612 10618 10641 10643 10677 10682 10693 10701 10707 10702 10704 10712 10709
10545 10539 10531 10520 10509 10496 10480 10463 10447 10428 10411 10401 10387 10383 10379 10381 10384 10384 10392 10404 10421 10443 10446 10478 10488 10498 10511 10528 10537 10560 10567 10578 10587 10603 10618 10640 10655 10686 10670 10688 10681 10683 10696 10702 10702
10536 10529 10521 10509 10496 10480 10462 10443 10426 10408 10390 10374 10366 10362 10360 10357 10359 10361 10365 10378 10384 10404 10426 10451 10457 10473 10493 10501 10519 10537 10549 10561 10573 10588 10612 10623 10635 10666 10661 10661 10665 10678 10689 10691 10690
10527 10519 10510 10497 10482 10466 10447 10427 10405 10386 10373 10361 10349 10346 10344 10339 10340 10343 10346 10354 10366 10379 10404 10416 10427 10453 10468 10486 10499 10517 10534 10547 10561 10578 10610 10609 10632 10642 10635 10648 10657 10671 10673 10675 10673
10518 10509 10498 10485 10469 10452 10434 10413 10394 10376 10360 10352 10337 10332 10328 10326 10323 10325 10332 10340 10352 10365 10382 10392 10406 10426 10443 10462 10479 10496 10515 10533 10550 10571 10590 10600 10625 10623 10617 10637 10652 10656 10658 10658 10663
10509 10498 10488 10474 10459 10442 10425 10406 10389 10369 10355 10339 10330 10321 10317 10313 10312 10313 10321 10328 10339 10353 10361 10371 10391 10408 10427 10440 10458 10479 10500 10515 10532 10555 10576 10597 10611 10609 10610 10629 10635 10643 10645 10649 10654
10501 10488 10476 10464 10449 10433 10414 10397 10381 10362 10347 10336 10323 10314 10307 10304 10303 10305 10310 10317 10325 10334 10342 10356 10378 10390 10401 10422 10442 10459 10476 10492 10517 10542 10570 10590 10604 10608 10600 10619 10629 10634 10637 10643 10643
10496 10483 10469 10453 10439 10424 10406 10388 10371 10357 10342 10328 10319 10310 10302 10297 10295 10296 10299 10303 10309 10317 10330 10347 10361 10370 10381 10405 10421 10436 10457 10481 10502 10527 10558 10581 10600 10596 10586 10614 10623 10625 10629 10634 10637
10492 10480 10466 10448 10434 10419 10404 10388 10370 10352 10337 10324 10313 10305 10297 10291 10288 10289 10291 10293 10297 10309 10319 10334 10342 10349 10365 10384 10400 10417 10441 10467 10493 10520 10546 10571 10591 10574 10590 10605 10612 10618 10623 10627 10631
10483 10473 10461 10447 10431 10410 10393 10378 10366 10350 10333 10320 10311 10301 10293 10289 10284 10282 10283 10285 10289 10297 10309 10318 10325 10337 10352 10369 10387 10410 10430 10456 10480 10504 10534 10559 10564 10560 10580 10593 10604 10611 10616 10620 10625
10477 10464 10451 10438 10426 10411 10391 10371 10355 10342 10329 10319 10305 10297 10291 10284 10282 10279 10279 10280 10284 10291 10297 10304 10314 10322 10332 10356 10380 10399 10416 10440 10463 10490 10518 10546 10531 10556 10573 10587 10596 10605 10610 10616 10619
10470 10458 10445 10431 10414 10402 10386 10371 10358 10341 10327 10317 10305 10294 10287 10283 10278 10277 10276 10276 10279 10283 10289 10297 10305 10313 10321 10348 10369 10386 10408 10430 10454 10477 10504 10523 10519 10546 10561 10576 10587 10598 10604 10611 10614
10464 10451 10436 10425 10412 10398 10383 10368 10351 10340 10329 10314 10304 10294 10285 10279 10276 10275 10273 10272 10275 10279 10284 10290 10297 10309 10322 10340 10357 10377 10396 10421 10444 10463 10489 10504 10515 10531 10550 10568 10579 10592 10598 10604 10608
10458 10446 10435 10421 10408 10394 10382 10370 10356 10339 10325 10315 10302 10292 10284 10279 10275 10272 10271 10271 10271 10274 10280 10287 10296 10305 10317 10332 10348 10370 10394 10416 10435 10452 10472 10488 10501 10523 10542 10560 10574 10584 10593 10597 10602